Regional Weather Roundup
Issued by NWS Jackson, KY

Home | Current Version | Previous Version | Graphics & Text | Print | Product List | Glossary On
Versions: 1 2 3 4 5 6 7 8 9 10 11 12 13 14 15 16 17 18 19 20 21 22 23 24 25 26 27
000
ASUS43 KJKL 021510
RWRJKL

EAST KENTUCKY HOURLY WEATHER ROUNDUP
NATIONAL WEATHER SERVICE JACKSON KY
1000 AM EST FRI DEC 02 2016

NOTE: "FAIR" INDICATES FEW OR NO CLOUDS BELOW 12,000 FEET WITH
NO SIGNIFICANT WEATHER AND/OR OBSTRUCTIONS TO VISIBILITY.

* THESE REPORTS ARE NOT UNDER NWS QUALITY CONTROL AND MAY NOT
  REPORT WEATHER SUCH AS PRECIPITATION AND FOG.

KYZ079-080-083-085-087-088-110-112-115-119-120-021600
...EASTERN KENTUCKY...

CITY           SKY/WX    TMP DP  RH WIND       PRES   REMARKS
JACKSON        SUNNY     36  29  75 VRB5      30.21R WCI  32
LONDON         SUNNY     38  30  73 VRB3      30.22R
SOMERSET*      SUNNY     34  34 100 CALM      30.25S
MONTICELLO*    SUNNY     40  32  73 W10       30.25S WCI  33
WILLIAMSBURG*  SUNNY     36  32  87 SE3       30.24S
MIDDLESBORO*   PTSUNNY   30  30 100 CALM      30.26R FOG
HARLAN APT*    CLOUDY    32  32 100 CALM      30.22R VSB<1/4
PIKE CO APT*     N/A     38  31  77 SW3       30.20R
BIG SANDY APT* SUNNY     38  31  76 W5        30.21R WCI  34
MOREHEAD APT*  SUNNY     36  28  75 W6        30.22R WCI  31
ASHLAND*       CLOUDY    36  28  75 CALM      30.19S
$$

KYZ035-036-041-042-044-050-067-078-099-021600
...CENTRAL KENTUCKY...

CITY           SKY/WX    TMP DP  RH WIND       PRES   REMARKS
MT STERLING*   SUNNY     36  32  87 W6        30.23R WCI  31
FLEMING/MASON* CLOUDY    33  30  86 W10       30.21R WCI  25
DANVILLE*      SUNNY     34  32  93 CALM      30.24R
LEXINGTON      SUNNY     37  30  75 SW7       30.22R WCI  32
FRANKFORT      MOSUNNY   36  29  75 SW8       30.22R WCI  30
LOUISVILLE     SUNNY     37  30  75 SW5       30.24R WCI  33
LEBANON*         N/A     37  32  81 CALM      30.24R
GLASGOW*       SUNNY     38  32  81 SW3       30.24R
BOWLING GREEN  SUNNY     40  31  70 SW3       30.26R
$$

KYZ091>093-OHZ055-061-077-WVZ005-015-034-035-042-021600
...SOUTHERN OHIO/WEST VIRGINIA...

CITY           SKY/WX    TMP DP  RH WIND       PRES   REMARKS
COVINGTON      CLOUDY    37  29  72 W10       30.18R WCI  30
COLUMBUS       CLOUDY    37  31  78 W12       30.13S WCI  29
DAYTON         CLOUDY    35  31  85 W9        30.16R WCI  28
WILMINGTON     CLOUDY    35  29  78 W10       30.16R WCI  27
HUNTINGTON     PTSUNNY   38  29  70 W9        30.19R WCI  31
CHARLESTON     CLOUDY    37  29  72 W7        30.18R WCI  32
PINEVILLE*     SUNNY     37  32  83 MISG      30.22R
BECKLEY        CLOUDY    35  27  72 W10       30.12R WCI  27
BLUEFIELD      PTSUNNY   32  25  75 W17G24    30.13R WCI  21
LOGAN CO APT*    N/A     37  30  75 W6G13     30.17R WCI  33
$$

VAZ002-007-008-TNZ017-027-036-066-071-021600
...SOUTHWEST VIRGINIA/EAST TENNESSEE...

CITY           SKY/WX    TMP DP  RH WIND       PRES   REMARKS
WISE*          SUNNY     37  28  70 SW8       30.17S WCI  31
JONESVILLE*      N/A     36  32  87 CALM      30.25S
ABINGDON*      SUNNY     39  33  79 W7        30.20R WCI  34
BRISTOL        SUNNY     38  33  82 CALM      30.22R
MORRISTOWN*    SUNNY     41  32  70 SW7       30.24R
SEVIERVILLE*   SUNNY     37  30  75 CALM      30.25S
KNOXVILLE      MOSUNNY   42  32  67 SW3       30.25R
OAK RIDGE      SUNNY     40  29  64 CALM      30.26R
CROSSVILLE     SUNNY     40  29  64 CALM      30.23R
NASHVILLE      SUNNY     42  32  67 CALM      30.28R
$$

...KEY TO REMARKS...
VSB - VISIBILITY IN MILES
WCI - WIND CHILL INDEX
HX  - HEAT INDEX

$$




USA.gov is the U.S. government's official web portal to all federal, state and local government web resources and services.